sat.trackr.live / text

‹ back to catalog

STARLINK-3246

NORAD 49732 · 2021-115J

PAYLOAD ACTIVE UNKNOWN

§ Identity

Operator
Country
US
Launch date
2021-12-02
Launch site
AFETR
Launch vehicle
Mass (kg)
RCS (m²)

Purposes: comms

External: N2YO · Heavens-Above · Gunter

§ Orbital elements

Epoch: 2026-09-19T12:51:59.127264Z

Period
94.01 min
Inclination
53.1621°
Eccentricity
0.0001169
Mean motion
15.31700691 rev/d
Perigee alt
469.9 km
Apogee alt
471.5 km
Semi-major
6,848.9 km
B*
3.8104e-5
RAAN
356.3001°
Arg perigee
75.4689°
Mean anomaly
284.6442°
Rev number
26,482

§ Raw data

STARLINK-32461 49732U 21115J   26262.53610101  .00000818  00000+0  38104-4 0  99962 49732  53.1621 356.3001 0001169  75.4689 284.6442 15.31700691264824

JSON: /api/v1/satellites/49732 · /tle

For live sub-satellite position, see the globe view (requires WebGL).

§ Visibility from observer

Set your observer location to see the next 7 days of passes ≥ 10°. The values pass through the URL so the page stays shareable.

No JS? Fill the form by hand. The geolocation button needs JavaScript.